Time,TemperatureF,DewpointF,PressureIn,WindDirection,WindDirectionDegrees,WindSpeedMPH,WindSpeedGustMPH,Humidity,HourlyPrecipIn,Conditions,Clouds,dailyrainin,SoftwareType,DateUTC
2013-11-05 00:01:00,76.5,67.1,30.06,North,5,1.0,12.0,73,0.00,,,0.00,meteohub,2013-11-05 05:01:00,
2013-11-05 00:02:00,76.5,67.6,30.06,ESE,118,5.0,12.0,74,0.00,,,0.00,meteohub,2013-11-05 05:02:00,
2013-11-05 00:07:00,76.3,67.5,30.06,SE,127,5.0,12.0,74,0.00,,,0.00,meteohub,2013-11-05 05:07:00,
2013-11-05 00:12:00,76.3,67.5,30.06,ENE,63,3.0,11.0,74,0.00,,,0.00,meteohub,2013-11-05 05:12:00,
2013-11-05 00:17:00,76.3,66.6,30.06,NE,48,0.0,11.0,72,0.00,,,0.00,meteohub,2013-11-05 05:17:00,
2013-11-05 00:22:00,76.3,66.2,30.06,ESE,112,0.0,11.0,71,0.00,,,0.00,meteohub,2013-11-05 05:22:00,
2013-11-05 00:27:00,76.5,66.0,30.06,ENE,74,5.0,17.0,70,0.00,,,0.00,meteohub,2013-11-05 05:27:00,
2013-11-05 00:32:00,76.6,65.7,30.06,ENE,68,2.0,17.0,69,0.00,,,0.00,meteohub,2013-11-05 05:32:00,
2013-11-05 00:37:00,76.6,66.2,30.05,NNE,13,4.0,17.0,70,0.00,,,0.00,meteohub,2013-11-05 05:37:00,
2013-11-05 00:42:00,76.8,65.5,30.05,ENE,76,4.0,13.0,68,0.00,,,0.00,meteohub,2013-11-05 05:42:00,
2013-11-05 00:47:00,76.8,66.2,30.05,East,82,0.0,13.0,70,0.00,,,0.00,meteohub,2013-11-05 05:47:00,
2013-11-05 00:53:00,77.0,66.4,30.05,NE,44,0.0,13.0,70,0.00,,,0.00,meteohub,2013-11-05 05:53:00,
2013-11-05 00:58:00,77.0,66.0,30.05,East,98,0.0,13.0,69,0.00,,,0.00,meteohub,2013-11-05 05:58:00,
2013-11-05 01:03:00,77.0,66.4,30.05,NE,38,3.0,11.0,70,0.00,,,0.00,meteohub,2013-11-05 06:03:00,
2013-11-05 01:08:00,77.0,66.4,30.05,NE,42,1.0,11.0,70,0.00,,,0.00,meteohub,2013-11-05 06:08:00,
2013-11-05 01:13:00,76.8,66.7,30.05,ENE,73,9.0,11.0,71,0.00,,,0.00,meteohub,2013-11-05 06:13:00,
2013-11-05 01:18:00,76.8,65.8,30.05,ENE,59,4.0,11.0,69,0.00,,,0.00,meteohub,2013-11-05 06:18:00,
2013-11-05 01:23:00,76.8,65.5,30.05,ENE,59,3.0,11.0,68,0.00,,,0.00,meteohub,2013-11-05 06:23:00,
2013-11-05 01:28:00,76.8,65.5,30.05,SSE,165,0.0,11.0,68,0.00,,,0.00,meteohub,2013-11-05 06:28:00,
2013-11-05 01:33:00,76.8,66.2,30.05,NE,44,2.0,10.0,70,0.00,,,0.00,meteohub,2013-11-05 06:33:00,
2013-11-05 01:38:00,76.8,66.2,30.05,NNW,333,2.0,10.0,70,0.00,,,0.00,meteohub,2013-11-05 06:38:00,
2013-11-05 01:43:00,76.6,66.2,30.05,East,92,5.0,12.0,70,0.00,,,0.00,meteohub,2013-11-05 06:43:00,
2013-11-05 01:48:00,76.8,66.2,30.04,ENE,70,1.0,12.0,70,0.00,,,0.00,meteohub,2013-11-05 06:48:00,
2013-11-05 01:53:00,76.6,66.2,30.04,NNE,31,3.0,12.0,70,0.00,,,0.00,meteohub,2013-11-05 06:53:00,
2013-11-05 01:58:00,76.6,66.2,30.04,NE,56,9.0,10.0,70,0.00,,,0.00,meteohub,2013-11-05 06:58:00,
2013-11-05 02:04:00,76.6,66.9,30.04,SE,140,4.0,10.0,72,0.00,,,0.00,meteohub,2013-11-05 07:04:00,
2013-11-05 02:09:00,76.6,66.6,30.04,NE,54,1.0,10.0,71,0.00,,,0.00,meteohub,2013-11-05 07:09:00,
2013-11-05 02:14:00,76.6,66.2,30.04,NE,40,3.0,10.0,70,0.00,,,0.00,meteohub,2013-11-05 07:14:00,
2013-11-05 02:19:00,76.8,66.7,30.04,NE,55,3.0,10.0,71,0.00,,,0.00,meteohub,2013-11-05 07:19:00,
2013-11-05 02:24:00,76.8,65.8,30.04,East,94,8.0,12.0,69,0.00,,,0.00,meteohub,2013-11-05 07:24:00,
2013-11-05 02:29:00,76.8,65.8,30.04,East,101,3.0,12.0,69,0.00,,,0.00,meteohub,2013-11-05 07:29:00,
2013-11-05 02:34:00,76.8,66.2,30.04,ENE,78,2.0,12.0,70,0.00,,,0.00,meteohub,2013-11-05 07:34:00,
2013-11-05 02:39:00,76.8,66.2,30.04,NE,49,6.0,12.0,70,0.00,,,0.00,meteohub,2013-11-05 07:39:00,
2013-11-05 02:44:00,76.8,66.2,30.03,North,350,2.0,12.0,70,0.00,,,0.00,meteohub,2013-11-05 07:44:00,
2013-11-05 02:49:00,76.6,66.2,30.03,NE,44,1.0,12.0,70,0.00,,,0.00,meteohub,2013-11-05 07:49:00,
2013-11-05 02:54:00,76.6,66.2,30.03,East,90,5.0,12.0,70,0.00,,,0.00,meteohub,2013-11-05 07:54:00,
2013-11-05 02:59:00,76.6,66.2,30.03,NNE,29,4.0,11.0,70,0.00,,,0.00,meteohub,2013-11-05 07:59:00,
2013-11-05 03:04:00,76.6,66.2,30.03,North,5,5.0,11.0,70,0.00,,,0.00,meteohub,2013-11-05 08:04:00,
2013-11-05 03:09:00,76.6,65.7,30.03,North,355,4.0,10.0,69,0.00,,,0.00,meteohub,2013-11-05 08:09:00,
2013-11-05 03:14:00,76.6,65.7,30.03,SE,142,2.0,10.0,69,0.00,,,0.00,meteohub,2013-11-05 08:14:00,
2013-11-05 03:19:00,76.6,66.2,30.03,East,100,2.0,16.0,70,0.00,,,0.00,meteohub,2013-11-05 08:19:00,
2013-11-05 03:24:00,76.6,66.6,30.03,ESE,113,0.0,16.0,71,0.00,,,0.00,meteohub,2013-11-05 08:24:00,
2013-11-05 03:29:00,76.6,66.2,30.03,NE,55,1.0,16.0,70,0.00,,,0.00,meteohub,2013-11-05 08:29:00,
2013-11-05 03:34:00,76.6,65.7,30.03,NNE,33,2.0,13.0,69,0.00,,,0.00,meteohub,2013-11-05 08:34:00,
2013-11-05 03:39:00,76.6,66.2,30.03,ESE,121,0.0,13.0,70,0.00,,,0.00,meteohub,2013-11-05 08:39:00,
2013-11-05 03:44:00,76.6,66.6,30.03,ESE,111,5.0,14.0,71,0.00,,,0.00,meteohub,2013-11-05 08:44:00,
2013-11-05 03:49:00,76.8,66.2,30.03,NE,44,7.0,14.0,70,0.00,,,0.00,meteohub,2013-11-05 08:49:00,
2013-11-05 03:54:00,76.8,66.2,30.03,ESE,108,2.0,14.0,70,0.00,,,0.00,meteohub,2013-11-05 08:54:00,
2013-11-05 03:59:00,77.0,66.4,30.03,SE,130,2.0,12.0,70,0.00,,,0.00,meteohub,2013-11-05 08:59:00,
2013-11-05 04:04:00,77.2,66.6,30.03,ENE,78,2.0,12.0,70,0.00,,,0.00,meteohub,2013-11-05 09:04:00,
2013-11-05 04:09:00,77.2,67.1,30.03,ENE,74,1.0,12.0,71,0.00,,,0.00,meteohub,2013-11-05 09:09:00,
2013-11-05 04:14:00,77.0,67.3,30.02,NNE,28,4.0,13.0,72,0.00,,,0.00,meteohub,2013-11-05 09:14:00,
2013-11-05 04:19:00,76.8,66.7,30.03,NNE,23,2.0,13.0,71,0.00,,,0.00,meteohub,2013-11-05 09:19:00,
2013-11-05 04:24:00,76.8,67.1,30.02,NE,41,3.0,13.0,72,0.00,,,0.00,meteohub,2013-11-05 09:24:00,
2013-11-05 04:29:00,76.8,66.7,30.03,NNE,18,8.0,11.0,71,0.00,,,0.00,meteohub,2013-11-05 09:29:00,
2013-11-05 04:34:00,76.8,67.1,30.03,NE,35,5.0,11.0,72,0.00,,,0.00,meteohub,2013-11-05 09:34:00,
2013-11-05 04:39:00,77.0,67.6,30.03,East,92,1.0,13.0,73,0.00,,,0.00,meteohub,2013-11-05 09:39:00,
2013-11-05 04:44:00,77.0,67.3,30.03,East,81,3.0,13.0,72,0.00,,,0.00,meteohub,2013-11-05 09:44:00,
2013-11-05 04:49:00,77.0,67.3,30.03,East,91,0.0,13.0,72,0.00,,,0.00,meteohub,2013-11-05 09:49:00,
2013-11-05 04:54:00,77.2,67.1,30.03,East,98,2.0,11.0,71,0.00,,,0.00,meteohub,2013-11-05 09:54:00,
2013-11-05 04:59:00,77.0,66.4,30.03,ESE,104,5.0,11.0,70,0.00,,,0.00,meteohub,2013-11-05 09:59:00,
2013-11-05 05:04:00,77.2,66.6,30.03,NE,50,3.0,11.0,70,0.00,,,0.00,meteohub,2013-11-05 10:04:00,
2013-11-05 05:09:00,77.2,67.5,30.03,North,11,2.0,11.0,72,0.00,,,0.00,meteohub,2013-11-05 10:09:00,
2013-11-05 05:14:00,77.2,67.5,30.03,East,82,1.0,11.0,72,0.00,,,0.00,meteohub,2013-11-05 10:14:00,
2013-11-05 05:19:00,77.2,67.1,30.03,SE,126,4.0,10.0,71,0.00,,,0.00,meteohub,2013-11-05 10:19:00,
2013-11-05 05:24:00,77.2,66.6,30.03,ENE,78,7.0,11.0,70,0.00,,,0.00,meteohub,2013-11-05 10:24:00,
2013-11-05 05:29:00,77.4,66.7,30.03,East,93,1.0,13.0,70,0.00,,,0.00,meteohub,2013-11-05 10:29:00,
2013-11-05 05:34:00,77.4,66.7,30.03,ENE,66,0.0,13.0,70,0.00,,,0.00,meteohub,2013-11-05 10:34:00,
2013-11-05 05:39:00,77.5,67.5,30.03,ENE,74,1.0,13.0,71,0.00,,,0.00,meteohub,2013-11-05 10:39:00,
2013-11-05 05:44:00,77.4,67.6,30.03,ESE,115,2.0,11.0,72,0.00,,,0.00,meteohub,2013-11-05 10:44:00,
2013-11-05 05:49:00,77.4,67.6,30.03,East,90,10.0,11.0,72,0.00,,,0.00,meteohub,2013-11-05 10:49:00,
2013-11-05 05:54:00,77.4,68.0,30.03,ENE,60,4.0,11.0,73,0.00,,,0.00,meteohub,2013-11-05 10:54:00,
2013-11-05 05:59:00,77.4,68.0,30.04,East,93,11.0,11.0,73,0.00,,,0.00,meteohub,2013-11-05 10:59:00,
2013-11-05 06:04:00,77.4,68.0,30.04,East,92,5.0,12.0,73,0.00,,,0.00,meteohub,2013-11-05 11:04:00,
2013-11-05 06:09:00,77.4,68.4,30.04,East,99,2.0,13.0,74,0.00,,,0.00,meteohub,2013-11-05 11:09:00,
2013-11-05 06:14:00,77.4,68.4,30.04,ESE,108,5.0,13.0,74,0.00,,,0.00,meteohub,2013-11-05 11:14:00,
2013-11-05 06:19:00,77.4,68.4,30.04,ESE,115,2.0,13.0,74,0.00,,,0.00,meteohub,2013-11-05 11:19:00,
2013-11-05 06:24:00,77.4,68.9,30.04,ENE,77,2.0,12.0,75,0.00,,,0.00,meteohub,2013-11-05 11:24:00,
2013-11-05 06:29:00,77.2,68.7,30.04,NW,325,2.0,12.0,75,0.00,,,0.00,meteohub,2013-11-05 11:29:00,
2013-11-05 06:34:00,77.4,68.9,30.04,East,82,7.0,15.0,75,0.00,,,0.00,meteohub,2013-11-05 11:34:00,
2013-11-05 06:39:00,77.2,69.1,30.04,NW,315,1.0,15.0,76,0.00,,,0.00,meteohub,2013-11-05 11:39:00,
2013-11-05 06:44:00,77.2,69.1,30.04,ENE,76,3.0,15.0,76,0.00,,,0.00,meteohub,2013-11-05 11:44:00,
2013-11-05 06:49:00,77.2,69.1,30.05,NNE,28,2.0,10.0,76,0.00,,,0.00,meteohub,2013-11-05 11:49:00,
2013-11-05 06:54:00,77.4,69.6,30.05,ENE,59,1.0,10.0,77,0.00,,,0.00,meteohub,2013-11-05 11:54:00,
2013-11-05 06:59:00,77.4,68.9,30.05,East,92,6.0,11.0,75,0.00,,,0.00,meteohub,2013-11-05 11:59:00,
2013-11-05 07:04:00,77.4,69.3,30.05,NE,54,0.0,12.0,76,0.00,,,0.00,meteohub,2013-11-05 12:04:00,
2013-11-05 07:09:00,77.5,69.4,30.05,ENE,73,1.0,12.0,76,0.00,,,0.00,meteohub,2013-11-05 12:09:00,
2013-11-05 07:14:00,77.5,69.4,30.06,ENE,74,2.0,12.0,76,0.00,,,0.00,meteohub,2013-11-05 12:14:00,
2013-11-05 07:19:00,77.5,69.4,30.06,East,82,3.0,13.0,76,0.00,,,0.00,meteohub,2013-11-05 12:19:00,
2013-11-05 07:24:00,77.5,69.8,30.06,NE,42,4.0,14.0,77,0.00,,,0.00,meteohub,2013-11-05 12:24:00,
2013-11-05 07:29:00,77.4,69.6,30.06,ENE,78,1.0,14.0,77,0.00,,,0.00,meteohub,2013-11-05 12:29:00,
2013-11-05 07:34:00,77.4,68.9,30.06,NNE,17,9.0,14.0,75,0.00,,,0.00,meteohub,2013-11-05 12:34:00,
2013-11-05 07:39:00,77.5,68.9,30.06,NE,44,7.0,12.0,75,0.00,,,0.00,meteohub,2013-11-05 12:39:00,
2013-11-05 07:44:00,77.5,68.5,30.06,SSE,148,2.0,12.0,74,0.00,,,0.00,meteohub,2013-11-05 12:44:00,
2013-11-05 07:49:00,77.5,68.9,30.07,NNE,19,0.0,12.0,75,0.00,,,0.00,meteohub,2013-11-05 12:49:00,
2013-11-05 07:54:00,77.7,69.1,30.07,East,99,2.0,12.0,75,0.00,,,0.00,meteohub,2013-11-05 12:54:00,
2013-11-05 07:59:00,77.7,68.7,30.07,NNE,33,2.0,10.0,74,0.00,,,0.00,meteohub,2013-11-05 12:59:00,
2013-11-05 08:04:00,77.7,69.1,30.07,NE,44,3.0,13.0,75,0.00,,,0.00,meteohub,2013-11-05 13:04:00,
2013-11-05 08:09:00,78.1,69.1,30.07,North,355,0.0,13.0,74,0.00,,,0.00,meteohub,2013-11-05 13:09:00,
2013-11-05 08:14:00,78.3,69.3,30.08,NE,34,0.0,13.0,74,0.00,,,0.00,meteohub,2013-11-05 13:14:00,
2013-11-05 08:19:00,78.4,69.4,30.08,NE,42,4.0,14.0,74,0.00,,,0.00,meteohub,2013-11-05 13:19:00,
2013-11-05 08:24:00,78.4,69.1,30.08,ESE,109,2.0,14.0,73,0.00,,,0.00,meteohub,2013-11-05 13:24:00,
2013-11-05 08:29:00,78.4,68.7,30.08,NE,38,7.0,14.0,72,0.00,,,0.00,meteohub,2013-11-05 13:29:00,
2013-11-05 08:34:00,78.4,69.1,30.08,ESE,107,1.0,13.0,73,0.00,,,0.00,meteohub,2013-11-05 13:34:00,
2013-11-05 08:39:00,78.6,68.9,30.08,ENE,78,3.0,13.0,72,0.00,,,0.00,meteohub,2013-11-05 13:39:00,
2013-11-05 08:44:00,78.8,69.4,30.08,ENE,63,1.0,13.0,73,0.00,,,0.00,meteohub,2013-11-05 13:44:00,
2013-11-05 08:49:00,78.8,69.1,30.09,NNE,29,8.0,11.0,72,0.00,,,0.00,meteohub,2013-11-05 13:49:00,
2013-11-05 08:54:00,79.0,68.7,30.08,NNW,347,5.0,14.0,71,0.00,,,0.00,meteohub,2013-11-05 13:54:00,
2013-11-05 08:59:00,79.2,68.9,30.08,East,86,2.0,14.0,71,0.00,,,0.00,meteohub,2013-11-05 13:59:00,
2013-11-05 09:04:00,79.2,69.3,30.09,SSE,150,4.0,14.0,72,0.00,,,0.00,meteohub,2013-11-05 14:04:00,
2013-11-05 09:09:00,79.2,69.3,30.09,NE,45,7.0,14.0,72,0.00,,,0.00,meteohub,2013-11-05 14:09:00,
2013-11-05 09:14:00,79.0,69.3,30.09,SSE,156,4.0,13.0,72,0.00,,,0.00,meteohub,2013-11-05 14:14:00,
2013-11-05 09:19:00,79.0,69.3,30.09,East,94,3.0,12.0,72,0.00,,,0.00,meteohub,2013-11-05 14:19:00,
2013-11-05 09:24:00,79.0,68.7,30.09,SE,126,3.0,13.0,71,0.00,,,0.00,meteohub,2013-11-05 14:24:00,
2013-11-05 09:29:00,79.0,68.7,30.09,SE,141,4.0,13.0,71,0.00,,,0.00,meteohub,2013-11-05 14:29:00,
2013-11-05 09:34:00,79.0,68.7,30.09,NNE,24,7.0,13.0,71,0.00,,,0.00,meteohub,2013-11-05 14:34:00,
2013-11-05 09:39:00,79.2,69.3,30.09,SE,142,3.0,14.0,72,0.00,,,0.00,meteohub,2013-11-05 14:39:00,
2013-11-05 09:44:00,79.2,68.9,30.09,South,186,1.0,14.0,71,0.00,,,0.00,meteohub,2013-11-05 14:44:00,
2013-11-05 09:49:00,79.3,68.7,30.09,SW,223,4.0,14.0,70,0.00,,,0.00,meteohub,2013-11-05 14:49:00,
2013-11-05 09:54:00,79.3,69.1,30.09,ESE,105,3.0,11.0,71,0.00,,,0.00,meteohub,2013-11-05 14:54:00,
2013-11-05 09:59:00,79.3,69.1,30.09,East,89,7.0,11.0,71,0.00,,,0.00,meteohub,2013-11-05 14:59:00,
2013-11-05 10:04:00,79.5,69.6,30.09,NE,40,6.0,10.0,72,0.00,,,0.00,meteohub,2013-11-05 15:04:00,
2013-11-05 10:09:00,79.5,69.6,30.09,NE,44,5.0,10.0,72,0.00,,,0.00,meteohub,2013-11-05 15:09:00,
2013-11-05 10:14:00,79.7,69.8,30.09,East,99,1.0,10.0,72,0.00,,,0.00,meteohub,2013-11-05 15:14:00,
2013-11-05 10:19:00,79.9,70.5,30.09,SE,140,3.0,11.0,73,0.00,,,0.00,meteohub,2013-11-05 15:19:00,
2013-11-05 10:24:00,79.9,69.6,30.09,ENE,77,7.0,16.0,71,0.00,,,0.00,meteohub,2013-11-05 15:24:00,
2013-11-05 10:29:00,79.7,69.4,30.09,ESE,115,2.0,16.0,71,0.00,,,0.00,meteohub,2013-11-05 15:29:00,
2013-11-05 10:34:00,79.9,70.0,30.09,East,90,3.0,16.0,72,0.00,,,0.00,meteohub,2013-11-05 15:34:00,
2013-11-05 10:39:00,79.9,68.7,30.09,ENE,69,4.0,13.0,69,0.00,,,0.00,meteohub,2013-11-05 15:39:00,
2013-11-05 10:44:00,80.1,68.9,30.09,SSE,149,4.0,15.0,69,0.00,,,0.00,meteohub,2013-11-05 15:44:00,
2013-11-05 10:49:00,80.1,67.6,30.09,NE,47,2.0,15.0,66,0.00,,,0.00,meteohub,2013-11-05 15:49:00,
2013-11-05 10:54:00,80.2,67.8,30.09,SSW,200,3.0,15.0,66,0.00,,,0.00,meteohub,2013-11-05 15:54:00,
2013-11-05 10:59:00,80.4,68.0,30.09,NNE,24,5.0,11.0,66,0.00,,,0.00,meteohub,2013-11-05 15:59:00,
2013-11-05 11:04:00,80.4,68.0,30.09,East,92,3.0,13.0,66,0.00,,,0.00,meteohub,2013-11-05 16:04:00,
2013-11-05 11:09:00,80.8,68.7,30.08,ENE,74,7.0,14.0,67,0.00,,,0.00,meteohub,2013-11-05 16:09:00,
2013-11-05 11:14:00,80.8,68.7,30.08,ENE,61,3.0,14.0,67,0.00,,,0.00,meteohub,2013-11-05 16:14:00,
2013-11-05 11:19:00,81.0,68.5,30.08,ENE,65,1.0,14.0,66,0.00,,,0.00,meteohub,2013-11-05 16:19:00,
2013-11-05 11:24:00,80.8,68.0,30.07,North,11,3.0,14.0,65,0.00,,,0.00,meteohub,2013-11-05 16:24:00,
2013-11-05 11:29:00,80.8,69.3,30.07,NNE,24,2.0,14.0,68,0.00,,,0.00,meteohub,2013-11-05 16:29:00,
2013-11-05 11:34:00,80.6,68.5,30.07,ENE,77,2.0,14.0,67,0.00,,,0.00,meteohub,2013-11-05 16:34:00,
2013-11-05 11:39:00,80.6,69.1,30.07,SSE,167,3.0,14.0,68,0.00,,,0.00,meteohub,2013-11-05 16:39:00,
2013-11-05 11:44:00,80.8,68.4,30.07,NE,46,3.0,15.0,66,0.00,,,0.00,meteohub,2013-11-05 16:44:00,
2013-11-05 11:49:00,80.8,68.4,30.07,East,80,3.0,15.0,66,0.00,,,0.00,meteohub,2013-11-05 16:49:00,
2013-11-05 11:54:00,80.6,67.8,30.07,NE,44,2.0,15.0,65,0.00,,,0.00,meteohub,2013-11-05 16:54:00,
2013-11-05 11:58:00,80.8,68.4,30.07,NNE,13,5.0,11.0,66,0.00,,,0.00,meteohub,2013-11-05 16:58:00,
2013-11-05 12:03:00,81.0,68.5,30.06,NE,54,1.0,11.0,66,0.00,,,0.00,meteohub,2013-11-05 17:03:00,
2013-11-05 12:08:00,81.0,68.5,30.06,ENE,76,4.0,13.0,66,0.00,,,0.00,meteohub,2013-11-05 17:08:00,
2013-11-05 12:13:00,81.1,69.1,30.06,ENE,59,2.0,13.0,67,0.00,,,0.00,meteohub,2013-11-05 17:13:00,
2013-11-05 12:18:00,81.0,69.4,30.06,ENE,71,2.0,13.0,68,0.00,,,0.00,meteohub,2013-11-05 17:18:00,
2013-11-05 12:23:00,80.8,69.3,30.06,North,355,5.0,13.0,68,0.00,,,0.00,meteohub,2013-11-05 17:23:00,
2013-11-05 12:28:00,80.8,69.3,30.06,ENE,57,3.0,13.0,68,0.00,,,0.00,meteohub,2013-11-05 17:28:00,
2013-11-05 12:33:00,80.8,69.3,30.05,SE,134,2.0,13.0,68,0.00,,,0.00,meteohub,2013-11-05 17:33:00,
2013-11-05 12:38:00,80.8,68.7,30.06,North,0,10.0,13.0,67,0.00,,,0.00,meteohub,2013-11-05 17:38:00,
2013-11-05 12:43:00,80.6,68.5,30.05,ENE,75,4.0,12.0,67,0.00,,,0.00,meteohub,2013-11-05 17:43:00,
2013-11-05 12:48:00,80.4,68.9,30.05,NE,48,1.0,13.0,68,0.00,,,0.00,meteohub,2013-11-05 17:48:00,
2013-11-05 12:53:00,80.8,69.6,30.05,NE,47,4.0,13.0,69,0.00,,,0.00,meteohub,2013-11-05 17:53:00,
2013-11-05 12:58:00,80.8,69.3,30.05,East,100,10.0,13.0,68,0.00,,,0.00,meteohub,2013-11-05 17:58:00,
2013-11-05 13:03:00,81.0,69.8,30.04,East,98,2.0,12.0,69,0.00,,,0.00,meteohub,2013-11-05 18:03:00,
2013-11-05 13:08:00,81.1,69.1,30.04,NNE,13,3.0,12.0,67,0.00,,,0.00,meteohub,2013-11-05 18:08:00,
2013-11-05 13:13:00,81.1,69.1,30.04,SSE,165,4.0,12.0,67,0.00,,,0.00,meteohub,2013-11-05 18:13:00,
2013-11-05 13:18:00,81.0,69.4,30.04,East,97,0.0,14.0,68,0.00,,,0.00,meteohub,2013-11-05 18:18:00,
2013-11-05 13:23:00,80.8,69.6,30.04,NNE,30,10.0,14.0,69,0.00,,,0.00,meteohub,2013-11-05 18:23:00,
2013-11-05 13:28:00,80.8,69.3,30.04,South,189,4.0,14.0,68,0.00,,,0.00,meteohub,2013-11-05 18:28:00,
2013-11-05 13:33:00,80.8,69.6,30.04,East,94,8.0,13.0,69,0.00,,,0.00,meteohub,2013-11-05 18:33:00,
2013-11-05 13:38:00,80.8,70.2,30.04,NW,320,1.0,13.0,70,0.00,,,0.00,meteohub,2013-11-05 18:38:00,
2013-11-05 13:43:00,81.0,70.2,30.04,NE,41,4.0,13.0,70,0.00,,,0.00,meteohub,2013-11-05 18:43:00,
2013-11-05 13:48:00,81.1,70.9,30.04,SE,128,2.0,13.0,71,0.00,,,0.00,meteohub,2013-11-05 18:48:00,
2013-11-05 13:53:00,81.3,70.2,30.03,East,92,7.0,13.0,69,0.00,,,0.00,meteohub,2013-11-05 18:53:00,
2013-11-05 13:58:00,81.3,70.2,30.04,SSE,166,3.0,10.0,69,0.00,,,0.00,meteohub,2013-11-05 18:58:00,
2013-11-05 14:03:00,81.1,69.6,30.03,ENE,71,1.0,11.0,68,0.00,,,0.00,meteohub,2013-11-05 19:03:00,
2013-11-05 14:08:00,81.1,69.6,30.03,East,88,5.0,11.0,68,0.00,,,0.00,meteohub,2013-11-05 19:08:00,
2013-11-05 14:13:00,81.0,69.8,30.03,NNE,32,0.0,14.0,69,0.00,,,0.00,meteohub,2013-11-05 19:13:00,
2013-11-05 14:18:00,80.8,69.6,30.03,East,85,5.0,14.0,69,0.00,,,0.00,meteohub,2013-11-05 19:18:00,
2013-11-05 14:23:00,81.0,70.2,30.03,North,9,5.0,14.0,70,0.00,,,0.00,meteohub,2013-11-05 19:23:00,
2013-11-05 14:28:00,81.1,70.0,30.03,NNW,346,3.0,13.0,69,0.00,,,0.00,meteohub,2013-11-05 19:28:00,
2013-11-05 14:33:00,81.3,70.2,30.03,NNE,29,1.0,13.0,69,0.00,,,0.00,meteohub,2013-11-05 19:33:00,
2013-11-05 14:38:00,81.7,70.5,30.02,NE,40,8.0,13.0,69,0.00,,,0.00,meteohub,2013-11-05 19:38:00,
2013-11-05 14:43:00,81.5,70.3,30.02,ENE,74,3.0,10.0,69,0.00,,,0.00,meteohub,2013-11-05 19:43:00,
2013-11-05 14:48:00,81.5,70.7,30.02,East,90,1.0,12.0,70,0.00,,,0.00,meteohub,2013-11-05 19:48:00,
2013-11-05 14:53:00,81.3,70.5,30.02,NNE,25,3.0,12.0,70,0.00,,,0.00,meteohub,2013-11-05 19:53:00,
2013-11-05 14:58:00,81.3,71.4,30.02,NNE,14,5.0,12.0,72,0.00,,,0.00,meteohub,2013-11-05 19:58:00,
2013-11-05 15:03:00,81.1,70.9,30.02,ENE,59,2.0,9.0,71,0.00,,,0.00,meteohub,2013-11-05 20:03:00,
2013-11-05 15:08:00,81.0,70.7,30.02,ESE,115,4.0,9.0,71,0.00,,,0.00,meteohub,2013-11-05 20:08:00,
2013-11-05 15:13:00,81.0,71.4,30.02,NE,50,7.0,10.0,73,0.00,,,0.00,meteohub,2013-11-05 20:13:00,
2013-11-05 15:18:00,81.0,71.4,30.02,South,174,3.0,12.0,73,0.00,,,0.00,meteohub,2013-11-05 20:18:00,
2013-11-05 15:23:00,81.0,71.1,30.02,ENE,66,4.0,12.0,72,0.00,,,0.00,meteohub,2013-11-05 20:23:00,
2013-11-05 15:28:00,80.6,71.1,30.02,ENE,78,2.0,12.0,73,0.00,,,0.00,meteohub,2013-11-05 20:28:00,
2013-11-05 15:33:00,80.4,70.9,30.02,NNE,32,3.0,11.0,73,0.00,,,0.00,meteohub,2013-11-05 20:33:00,
2013-11-05 15:38:00,80.2,71.2,30.02,ENE,60,1.0,10.0,74,0.00,,,0.00,meteohub,2013-11-05 20:38:00,
2013-11-05 15:43:00,80.1,71.4,30.02,ENE,57,7.0,10.0,75,0.00,,,0.00,meteohub,2013-11-05 20:43:00,
2013-11-05 15:48:00,79.9,71.2,30.02,NE,51,4.0,10.0,75,0.00,,,0.00,meteohub,2013-11-05 20:48:00,
2013-11-05 15:53:00,79.9,71.2,30.02,NE,49,2.0,11.0,75,0.00,,,0.00,meteohub,2013-11-05 20:53:00,
2013-11-05 15:58:00,79.7,71.1,30.02,ESE,115,3.0,11.0,75,0.00,,,0.00,meteohub,2013-11-05 20:58:00,
2013-11-05 16:03:00,79.5,71.2,30.02,SSE,147,3.0,11.0,76,0.00,,,0.00,meteohub,2013-11-05 21:03:00,
2013-11-05 16:08:00,79.5,71.2,30.02,NNE,27,6.0,10.0,76,0.00,,,0.00,meteohub,2013-11-05 21:08:00,
2013-11-05 16:13:00,79.3,71.1,30.02,ENE,71,4.0,10.0,76,0.00,,,0.00,meteohub,2013-11-05 21:13:00,
2013-11-05 16:18:00,79.3,71.1,30.02,ESE,116,1.0,10.0,76,0.00,,,0.00,meteohub,2013-11-05 21:18:00,
2013-11-05 16:23:00,79.3,71.4,30.02,East,101,0.0,10.0,77,0.00,,,0.00,meteohub,2013-11-05 21:23:00,
2013-11-05 16:28:00,79.2,70.9,30.02,East,90,2.0,9.0,76,0.00,,,0.00,meteohub,2013-11-05 21:28:00,
2013-11-05 16:33:00,79.2,70.9,30.02,NNE,14,5.0,10.0,76,0.00,,,0.00,meteohub,2013-11-05 21:33:00,
2013-11-05 16:38:00,79.2,70.5,30.02,NNE,28,4.0,14.0,75,0.00,,,0.00,meteohub,2013-11-05 21:38:00,
2013-11-05 16:43:00,79.2,70.9,30.03,NE,41,1.0,14.0,76,0.00,,,0.00,meteohub,2013-11-05 21:43:00,
2013-11-05 16:48:00,79.0,70.3,30.03,East,82,3.0,14.0,75,0.00,,,0.00,meteohub,2013-11-05 21:48:00,
2013-11-05 16:53:00,79.2,70.9,30.03,East,89,2.0,11.0,76,0.00,,,0.00,meteohub,2013-11-05 21:53:00,
2013-11-05 16:58:00,79.0,70.7,30.03,East,90,3.0,10.0,76,0.00,,,0.00,meteohub,2013-11-05 21:58:00,
2013-11-05 17:03:00,79.0,70.7,30.03,ENE,66,1.0,10.0,76,0.00,,,0.00,meteohub,2013-11-05 22:03:00,
2013-11-05 17:08:00,79.0,71.1,30.03,NW,311,1.0,10.0,77,0.00,,,0.00,meteohub,2013-11-05 22:08:00,
2013-11-05 17:13:00,78.8,71.4,30.03,East,81,1.0,9.0,78,0.00,,,0.00,meteohub,2013-11-05 22:13:00,
2013-11-05 17:18:00,78.6,71.2,30.03,ENE,57,1.0,9.0,78,0.00,,,0.00,meteohub,2013-11-05 22:18:00,
2013-11-05 17:23:00,78.6,71.2,30.03,East,80,1.0,10.0,78,0.00,,,0.00,meteohub,2013-11-05 22:23:00,
2013-11-05 17:28:00,78.4,71.4,30.03,ESE,115,3.0,10.0,79,0.00,,,0.00,meteohub,2013-11-05 22:28:00,
2013-11-05 17:33:00,78.3,70.9,30.03,East,101,8.0,10.0,78,0.00,,,0.00,meteohub,2013-11-05 22:33:00,
2013-11-05 17:38:00,78.3,70.5,30.03,ENE,73,4.0,9.0,77,0.00,,,0.00,meteohub,2013-11-05 22:38:00,
2013-11-05 17:43:00,78.4,70.7,30.03,ESE,103,4.0,9.0,77,0.00,,,0.00,meteohub,2013-11-05 22:43:00,
2013-11-05 17:48:00,78.4,70.7,30.04,South,182,1.0,9.0,77,0.00,,,0.00,meteohub,2013-11-05 22:48:00,
2013-11-05 17:53:00,78.4,71.1,30.03,ENE,69,2.0,9.0,78,0.00,,,0.00,meteohub,2013-11-05 22:53:00,
2013-11-05 17:58:00,78.4,70.7,30.03,SW,229,0.0,8.0,77,0.00,,,0.00,meteohub,2013-11-05 22:58:00,
2013-11-05 18:03:00,78.4,70.7,30.04,NNE,24,5.0,9.0,77,0.00,,,0.00,meteohub,2013-11-05 23:03:00,
2013-11-05 18:08:00,78.4,70.7,30.03,North,0,2.0,10.0,77,0.00,,,0.00,meteohub,2013-11-05 23:08:00,
2013-11-05 18:13:00,78.4,71.1,30.04,ESE,121,9.0,10.0,78,0.00,,,0.00,meteohub,2013-11-05 23:13:00,
2013-11-05 18:18:00,78.4,71.1,30.04,ENE,76,4.0,12.0,78,0.00,,,0.00,meteohub,2013-11-05 23:18:00,
2013-11-05 18:23:00,78.4,71.1,30.04,ESE,112,4.0,12.0,78,0.00,,,0.00,meteohub,2013-11-05 23:23:00,
2013-11-05 18:28:00,78.4,71.4,30.04,East,80,2.0,12.0,79,0.00,,,0.00,meteohub,2013-11-05 23:28:00,
2013-11-05 18:33:00,78.3,71.2,30.04,ESE,108,3.0,11.0,79,0.00,,,0.00,meteohub,2013-11-05 23:33:00,
2013-11-05 18:38:00,78.1,71.1,30.04,East,99,1.0,11.0,79,0.00,,,0.00,meteohub,2013-11-05 23:38:00,
2013-11-05 18:43:00,78.3,70.9,30.04,East,81,5.0,11.0,78,0.00,,,0.00,meteohub,2013-11-05 23:43:00,
2013-11-05 18:48:00,78.3,70.9,30.04,ENE,75,5.0,11.0,78,0.00,,,0.00,meteohub,2013-11-05 23:48:00,
2013-11-05 18:53:00,78.3,70.9,30.04,ENE,58,3.0,11.0,78,0.00,,,0.00,meteohub,2013-11-05 23:53:00,
2013-11-05 18:58:00,78.3,70.9,30.05,ESE,103,3.0,13.0,78,0.00,,,0.00,meteohub,2013-11-05 23:58:00,
2013-11-05 19:03:00,78.3,70.9,30.05,ENE,71,0.0,13.0,78,0.00,,,0.00,meteohub,2013-11-06 00:03:00,
2013-11-05 19:09:00,78.3,70.5,30.05,ENE,72,2.0,13.0,77,0.00,,,0.00,meteohub,2013-11-06 00:09:00,
2013-11-05 19:14:00,78.4,70.7,30.05,ESE,111,7.0,13.0,77,0.00,,,0.00,meteohub,2013-11-06 00:14:00,
2013-11-05 19:19:00,78.4,70.7,30.05,NE,48,5.0,13.0,77,0.00,,,0.00,meteohub,2013-11-06 00:19:00,
2013-11-05 19:24:00,78.3,70.5,30.05,East,83,2.0,13.0,77,0.00,,,0.00,meteohub,2013-11-06 00:24:00,
2013-11-05 19:29:00,78.3,70.5,30.05,ENE,72,3.0,9.0,77,0.00,,,0.00,meteohub,2013-11-06 00:29:00,
2013-11-05 19:34:00,78.3,70.9,30.05,East,92,6.0,9.0,78,0.00,,,0.00,meteohub,2013-11-06 00:34:00,
2013-11-05 19:39:00,78.3,70.9,30.05,ESE,104,3.0,11.0,78,0.00,,,0.00,meteohub,2013-11-06 00:39:00,
2013-11-05 19:44:00,78.3,70.5,30.05,NE,47,6.0,11.0,77,0.00,,,0.00,meteohub,2013-11-06 00:44:00,
2013-11-05 19:49:00,78.1,70.3,30.05,NNE,32,2.0,13.0,77,0.00,,,0.00,meteohub,2013-11-06 00:49:00,
2013-11-05 19:54:00,78.1,70.3,30.05,East,81,3.0,13.0,77,0.00,,,0.00,meteohub,2013-11-06 00:54:00,
2013-11-05 19:59:00,78.1,70.7,30.06,NE,38,1.0,13.0,78,0.00,,,0.00,meteohub,2013-11-06 00:59:00,
2013-11-05 20:04:00,78.3,70.5,30.06,SE,134,2.0,13.0,77,0.00,,,0.00,meteohub,2013-11-06 01:04:00,
2013-11-05 20:09:00,78.3,70.0,30.06,ESE,113,4.0,13.0,76,0.00,,,0.00,meteohub,2013-11-06 01:09:00,
2013-11-05 20:14:00,78.3,70.0,30.06,ESE,105,3.0,13.0,76,0.00,,,0.00,meteohub,2013-11-06 01:14:00,
2013-11-05 20:19:00,78.3,70.5,30.06,SE,142,3.0,11.0,77,0.00,,,0.00,meteohub,2013-11-06 01:19:00,
2013-11-05 20:24:00,78.3,70.5,30.06,East,95,0.0,12.0,77,0.00,,,0.00,meteohub,2013-11-06 01:24:00,
2013-11-05 20:29:00,78.3,70.5,30.06,ENE,61,1.0,12.0,77,0.00,,,0.00,meteohub,2013-11-06 01:29:00,
2013-11-05 20:34:00,78.3,70.5,30.06,ENE,66,3.0,12.0,77,0.00,,,0.00,meteohub,2013-11-06 01:34:00,
2013-11-05 20:39:00,78.3,70.0,30.06,East,91,2.0,13.0,76,0.00,,,0.00,meteohub,2013-11-06 01:39:00,
2013-11-05 20:44:00,78.1,70.0,30.06,ENE,66,2.0,13.0,76,0.00,,,0.00,meteohub,2013-11-06 01:44:00,
2013-11-05 20:49:00,78.1,70.0,30.07,SW,228,3.0,13.0,76,0.00,,,0.00,meteohub,2013-11-06 01:49:00,
2013-11-05 20:54:00,78.1,70.0,30.07,NE,40,2.0,11.0,76,0.00,,,0.00,meteohub,2013-11-06 01:54:00,
2013-11-05 20:59:00,78.1,70.0,30.07,SE,135,6.0,11.0,76,0.00,,,0.00,meteohub,2013-11-06 01:59:00,
2013-11-05 21:04:00,78.1,70.0,30.07,ENE,78,0.0,12.0,76,0.00,,,0.00,meteohub,2013-11-06 02:04:00,
2013-11-05 21:09:00,78.1,70.0,30.07,ENE,59,0.0,12.0,76,0.00,,,0.00,meteohub,2013-11-06 02:09:00,
2013-11-05 21:14:00,78.1,70.0,30.07,ENE,67,11.0,12.0,76,0.00,,,0.00,meteohub,2013-11-06 02:14:00,
2013-11-05 21:19:00,77.9,70.2,30.07,ENE,77,4.0,11.0,77,0.00,,,0.00,meteohub,2013-11-06 02:19:00,
2013-11-05 21:24:00,77.7,69.6,30.07,NNW,347,4.0,11.0,76,0.00,,,0.00,meteohub,2013-11-06 02:24:00,
2013-11-05 21:29:00,77.7,69.6,30.07,SE,129,3.0,11.0,76,0.00,,,0.00,meteohub,2013-11-06 02:29:00,
2013-11-05 21:34:00,77.7,69.6,30.07,NE,39,1.0,12.0,76,0.00,,,0.00,meteohub,2013-11-06 02:34:00,
2013-11-05 21:39:00,77.7,69.6,30.07,NE,38,2.0,12.0,76,0.00,,,0.00,meteohub,2013-11-06 02:39:00,
2013-11-05 21:44:00,77.7,69.6,30.07,NNE,29,5.0,13.0,76,0.00,,,0.00,meteohub,2013-11-06 02:44:00,
2013-11-05 21:49:00,77.7,69.6,30.07,NNE,13,8.0,13.0,76,0.00,,,0.00,meteohub,2013-11-06 02:49:00,
2013-11-05 21:54:00,77.7,70.0,30.07,East,88,2.0,13.0,77,0.00,,,0.00,meteohub,2013-11-06 02:54:00,
2013-11-05 21:59:00,77.7,70.0,30.07,NNW,344,0.0,11.0,77,0.00,,,0.00,meteohub,2013-11-06 02:59:00,
2013-11-05 22:04:00,77.7,70.0,30.08,SE,136,2.0,11.0,77,0.00,,,0.00,meteohub,2013-11-06 03:04:00,
2013-11-05 22:09:00,77.7,70.0,30.08,East,80,5.0,11.0,77,0.00,,,0.00,meteohub,2013-11-06 03:09:00,
2013-11-05 22:14:00,77.5,69.8,30.07,ENE,67,2.0,11.0,77,0.00,,,0.00,meteohub,2013-11-06 03:14:00,
2013-11-05 22:19:00,77.5,69.8,30.07,ENE,77,0.0,12.0,77,0.00,,,0.00,meteohub,2013-11-06 03:19:00,
2013-11-05 22:24:00,77.5,69.8,30.07,NE,44,2.0,12.0,77,0.00,,,0.00,meteohub,2013-11-06 03:24:00,
2013-11-05 22:29:00,77.5,69.4,30.08,West,270,6.0,12.0,76,0.00,,,0.00,meteohub,2013-11-06 03:29:00,
2013-11-05 22:34:00,77.7,70.0,30.07,ENE,67,5.0,13.0,77,0.00,,,0.00,meteohub,2013-11-06 03:34:00,
2013-11-05 22:39:00,77.7,70.0,30.07,WNW,303,4.0,13.0,77,0.00,,,0.00,meteohub,2013-11-06 03:39:00,
2013-11-05 22:44:00,77.7,69.6,30.07,East,93,5.0,15.0,76,0.00,,,0.00,meteohub,2013-11-06 03:44:00,
2013-11-05 22:49:00,77.7,69.6,30.07,East,98,5.0,15.0,76,0.00,,,0.00,meteohub,2013-11-06 03:49:00,
2013-11-05 22:54:00,77.7,70.0,30.07,East,96,0.0,15.0,77,0.00,,,0.00,meteohub,2013-11-06 03:54:00,
2013-11-05 22:59:00,77.7,70.0,30.07,North,9,1.0,11.0,77,0.00,,,0.00,meteohub,2013-11-06 03:59:00,
2013-11-05 23:04:00,77.7,70.0,30.07,NE,34,3.0,11.0,77,0.00,,,0.00,meteohub,2013-11-06 04:04:00,
2013-11-05 23:09:00,77.5,69.8,30.07,NE,41,0.0,11.0,77,0.00,,,0.00,meteohub,2013-11-06 04:09:00,
2013-11-05 23:14:00,77.5,70.2,30.07,North,351,1.0,12.0,78,0.00,,,0.00,meteohub,2013-11-06 04:14:00,
2013-11-05 23:19:00,77.5,69.8,30.06,East,80,7.0,12.0,77,0.00,,,0.00,meteohub,2013-11-06 04:19:00,
2013-11-05 23:24:00,77.5,70.2,30.06,NE,43,4.0,12.0,78,0.00,,,0.00,meteohub,2013-11-06 04:24:00,
2013-11-05 23:29:00,77.5,69.8,30.06,NNE,15,8.0,11.0,77,0.00,,,0.00,meteohub,2013-11-06 04:29:00,
2013-11-05 23:34:00,77.5,69.8,30.06,NE,36,2.0,10.0,77,0.00,,,0.00,meteohub,2013-11-06 04:34:00,
2013-11-05 23:39:00,77.5,69.8,30.06,NE,42,9.0,13.0,77,0.00,,,0.00,meteohub,2013-11-06 04:39:00,
2013-11-05 23:44:00,77.5,69.4,30.05,NW,326,4.0,13.0,76,0.00,,,0.00,meteohub,2013-11-06 04:44:00,
2013-11-05 23:49:00,77.5,69.8,30.05,South,169,4.0,13.0,77,0.00,,,0.00,meteohub,2013-11-06 04:49:00,
2013-11-05 23:54:00,77.5,69.4,30.05,SE,134,4.0,12.0,76,0.00,,,0.00,meteohub,2013-11-06 04:54:00,
2013-11-05 23:59:00,77.5,69.4,30.05,SSW,198,5.0,10.0,76,0.00,,,0.00,meteohub,2013-11-06 04:59:00,